Hourly Weather Roundup
Issued by NWS Central Illinois

Home | Current Version | Previous Version | Text Only | Print | Product List | Glossary Off
Versions: 1 2 3 4 5 6 7 8 9 10 11 12 13 14 15 16 17 18 19 20 21 22 23 24 25 26 27 28 29 30 31 32 33 34 35 36 37 38 39 40 41 42 43 44 45 46 47 48 49 50

000
NZUS43 KILX 210810
HWRILX

AREA WEATHER ROUNDUP
NATIONAL WEATHER SERVICE, LINCOLN IL
300 AM CDT TUE OCT 21 2014


CITY           SKY/WX    TMP DP  RH WIND       PRES   REMARKS
BLOOMINGTON    CLEAR     45  41  86 NW5       30.04R
CHAMPAIGN      CLEAR     43  42  97 W5        30.02R
DECATUR        CLEAR     45  42  89 CALM      30.03R
FLORA          CLEAR     47  43  85 NW5       30.02R
GALESBURG      CLEAR     39  37  94 CALM      30.06R
JACKSONVILLE   CLEAR     45  42  88 NW3       30.03S
LACON          CLEAR     38  37  94 CALM      30.05R
LAWRENCEVILLE  CLEAR     47  44  90 NW6       30.01R
LITCHFIELD     CLEAR     47  42  82 NW3       30.02S
$$


CITY           SKY/WX    TMP DP  RH WIND       PRES   REMARKS
LINCOLN        CLEAR     44  42  89 CALM      30.02S
MACOMB         CLEAR     42  39  91 NE5       30.07S
MATTOON        CLEAR     45  41  86 CALM      30.01R
MT CARMEL AP   CLEAR     45  43  93 CALM      30.01R
OLNEY-NOBLE AP CLEAR     45  43  93 CALM      30.02R
PARIS          MOCLDY    47  46  96 CALM      30.02S
PEORIA         CLEAR     45  41  86 CALM      30.05R
PONTIAC        MOCLDY    46  45  93 NW6       30.03R
RANTOUL        CLOUDY    47  44  90 NW5       30.02S FOG
ROBINSON       CLEAR     45  44  97 CALM      30.02R
SPRINGFIELD    CLEAR     43  40  89 NE3       30.03R
TAYLORVILLE    CLEAR     43  41  93 CALM      30.02S
$$

...REGIONAL REPORTS...


CITY           SKY/WX    TMP DP  RH WIND       PRES   REMARKS
CHICAGO O`HARE CLOUDY    51  42  71 N10       30.01S
KANKAKEE       MOCLDY    50  44  80 NW3       30.02S
MOLINE         CLEAR     39  37  92 CALM      30.07R FOG
MOUNT VERNON   CLEAR     45  39  81 CALM      30.02S
PITTSFIELD     CLEAR     47  42  81 W5        30.05S
QUINCY         CLEAR     46  41  82 NW6       30.04S
ROCKFORD       CLOUDY    49  42  77 N6        30.07R
$$


CITY           SKY/WX    TMP DP  RH WIND       PRES   REMARKS
BURLINGTON     CLEAR     48  41  76 NE3       30.06R
CEDAR RAPIDS   CLEAR     44  40  85 NE3       30.07R
DES MOINES     CLEAR     46  40  79 CALM      30.08R
KIRKSVILLE     CLEAR     41  41 100 NW3       30.07S
OTTUMWA        CLEAR     47  40  76 N7        30.07R
ST LOUIS       CLEAR     50  44  80 W5        30.04R
$$


CITY           SKY/WX    TMP DP  RH WIND       PRES   REMARKS
TERRE HAUTE    CLOUDY    47  45  93 NW3       30.00R
EVANSVILLE     CLEAR     47  44  90 SW3       30.00S
INDIANAPOLIS   MOCLDY    47  44  90 NW8       29.98R
LAFAYETTE      PTCLDY    43  42  97 NW5       29.99S
MADISON        CLOUDY    48  40  73 N5        30.07R
MILWAUKEE      CLOUDY    48  40  73 N10       30.04R
$$





USA.gov is the U.S. government's official web portal to all federal, state and local government web resources and services.